www.pogodaiklimat.ru

Погода и климат >> Архив погоды >> Саудовская Аравия >> Sharorah


ПОГОДА в Sharorah

  • Прогноз погоды в Sharorah
  • Монитор погоды в Sharorah
  • Климат города

АРХИВ ПОГОДЫ в Sharorah

Время (UTC), дата Ветер
(напр.,м/с)
 
Видим.   Явления Облачность Т
(С)
Тd
(С)
f
(%)
Тe
(С)
Тes
(С)
Комфортность P
(гПа)
Po
(гПа)
Тmin
(С)
Tmax
(С)
R
(мм)
R24
(мм)
S
(см)
15 14.10 В 5 10 км 9/6 1050 м
[Sc Ac lent]
+28.6 +14.0 41 +31 +31 жарко 1008.8 929.4
18 14.10 ЮВ 5 7000 м пыль 6/4 1200 м
[Sc diur, vesp Ac lent]
+25.3 +11.0 41 +27 +27 жарко 1010.4 931.3 +34.0
21 14.10 СВ 5 10 км 6/4 1200 м
[Sc diur, vesp Ac lent]
+22.6 +10.0 45 +24 +24 комфорт 1009.4 930.5
00 15.10 СВ 3 10 км 4/4 1200 м
[Sc diur, vesp]
+21.1 +9.0 46 +22 +22 комфорт 1009.7 930.7
03 15.10 С 3 10 км 9/6 1200 м
[Sc diur, vesp Ac lent]
+18.5 +10.0 58 +19 +19 1012.1 932.0
06 15.10 С 5 10 км 9/6 1050 м
[Sc Ac lent]
+23.0 +12.0 50 +26 +26 жарко 1012.9 932.9 +17.0
09 15.10 С 5 10 км 9/6 1050 м
[Sc Ac lent]
+28.6 +13.0 38 +30 +31 жарко 1010.3 930.9
12 15.10 С 5 10 км 8/5 1050 м
[Sc Ac lent]
+31.0 +13.0 33 +32 +33 жарко 1008.0 928.9
15 15.10 СВ 7 10 км 5/4 1200 м
[Sc diur, vesp Ac lent]
+33.6 +13.0 29 +34 +34 очень
жарко
1010.1 930.8
18 15.10 СВ 7 10 км 5/4 1200 м
[Sc diur, vesp Ac lent]
+33.6 +13.0 29 +34 +34 очень
жарко
1010.1 930.8
21 15.10 СВ 4 10 км 9/6 1050 м
[Sc Ac lent]
+21.3 +15.0 67 +24 +24 комфорт 1012.4 932.7
00 16.10 СВ 5 10 км 9/5 1050 м
[Sc Ac lent]
+20.1 +14.0 68 +22 +22 комфорт 1011.4 931.9
03 16.10 С 4 10 км 10/6 1050 м
[Sc Ac lent]
+19.4 +14.0 71 +21 +21 комфорт 1013.3 933.8
06 16.10 СВ 5 10 км 9/6 1050 м
[Sc Ac lent]
+23.4 +17.0 67 +29 +29 душно 1014.2 935.3 +17.6
09 16.10 С 5 10 км 9/6 1050 м
[Sc Ac lent]
+28.0 +17.0 51 +32 +33 душно 1011.9 932.8
12 16.10 С 5 10 км 9/6 1050 м
[Sc Ac lent]
+28.5 +17.0 50 +32 +33 душно 1008.8 930.5 2
15 16.10 В 6 10 км 9/6 1050 м
[Sc Ac lent]
+26.4 +17.0 56 +30 +30 душно 1012.1 931.9
18 16.10 В 4 10 км 6/4 1050 м
[Sc diur, vesp Ac lent]
+25.6 +15.0 52 +28 +28 жарко 1013.6 933.7 +30.0
21 16.10 В 3 10 км 5/4 1050 м
[Sc diur, vesp Ac lent]
+21.7 +13.0 58 +24 +24 комфорт 1013.2 933.4
00 17.10 штиль 0 10 км 6/5 1050 м
[Sc diur, vesp Ac lent]
+18.4 +13.0 71 +19 +19 1012.8 932.5 2
03 17.10 З 2 10 км 8/5 1050 м
[Sc diur, vesp Ac lent]
+16.6 +11.0 69 +17 +17 1013.7 933.0
06 17.10 СЗ 3 10 км 9/6 1050 м
[Sc Ac trans]
+20.0 +12.0 60 +22 +24 комфорт 1014.5 934.1 +15.3
09 17.10 З 3 10 км 9/6 1050 м
[Sc Ac trans]
+25.6 +14.0 49 +28 +31 жарко 1012.0 932.0
12 17.10 СЗ 3 10 км 8/5 1050 м
[Sc Ac trans]
+28.6 +14.0 41 +31 +33 жарко 1008.4 928.6
15 17.10 С 3 10 км 5/4 1050 м
[Sc Ac trans]
+27.0 +13.0 42 +29 +29 жарко 1009.5 929.2
18 17.10 С 4 10 км ясно +23.6 +12.0 48 +25 +25 комфорт 1011.7 931.2 +30.0
21 17.10 СВ 2 10 км ясно +21.2 +11.0 52 +23 +23 комфорт 1011.1 931.1
00 18.10 штиль 0 10 км ясно +19.1 +9.0 52 +20 +20 1010.0 930.2
03 18.10 штиль 0 10 км ясно +18.1 +11.0 63 +18 +18 1011.5 931.2
06 18.10 З 3 10 км ясно +24.5 +14.0 52 +27 +34 жарко 1012.3 932.4 +16.6
09 18.10 СЗ 3 10 км ясно +29.6 +14.0 39 +32 +47 душно 1009.5 930.1
12 18.10 З 4 10 км 4/4 1200 м
[Sc diur, vesp]
+31.8 +15.0 36 +34 +37 душно 1006.9 927.7
15 18.10 С 3 10 км 5/4 1050 м
[Sc diur, vesp Ac lent]
+29.5 +15.0 41 +32 +32 душно 1007.7 928.1
18 18.10 С 2 10 км 3/0
[Ac lent]
+27.6 +14.0 43 +30 +30 жарко 1009.5 930.3 +33.0
21 18.10 СВ 3 10 км 3/0
[Ac lent]
+25.4 +15.0 53 +28 +28 жарко 1009.3 930.5
00 19.10 В 2 10 км ясно +23.8 +14.0 54 +26 +26 жарко 1008.4 929.7
03 19.10 штиль 0 10 км 3/3 1200 м
[Sc diur, vesp]
+21.8 +14.0 61 +25 +25 комфорт 1010.0 930.6
06 19.10 СВ 2 10 км 5/4 1050 м
[Sc diur, vesp Ac lent]
+27.1 +13.0 42 +29 +33 жарко 1012.0 932.9 +29.0
09 19.10 З 2 10 км 5/4 1050 м
[Sc diur, vesp Ac lent]
+32.6 +15.0 35 +35 +43 душно 1009.2 930.7
12 19.10 С 4 10 км 5/4 1050 м
[Sc diur, vesp Ac lent]
+37.4 +15.0 27 +39 +42 очень
душно
1006.6 928.8
15 19.10 С 3 10 км 5/4 1050 м
[Sc diur, vesp Ac lent]
+34.1 +18.0 39 +38 +38 очень
душно
1008.5 929.9
18 19.10 В 3 10 км 3/3 1050 м
[Sc diur, vesp]
+29.1 +16.0 45 +32 +32 душно 1010.5 931.5 +37.0
21 19.10 В 4 10 км 3/1 1050 м
[Sc diur, vesp]
+26.5 +16.0 52 +30 +30 душно 1009.7 931.3
00 20.10 В 4 10 км ясно +23.0 +14.0 57 +26 +26 жарко 1009.9 930.6
03 20.10 В 2 10 км ясно +21.3 +13.0 59 +24 +24 комфорт 1011.7 931.9
06 20.10 В 5 10 км ясно +27.2 +13.0 41 +29 +33 жарко 1012.6 933.7 +19.3
09 20.10 штиль 0 10 км 5/4 1200 м
[Sc diur, vesp Ac lent]
+31.5 +12.0 30 +32 +44 жарко 1010.1 931.6
12 20.10 СВ 4 10 км 6/4 1200 м
[Sc diur, vesp Ac lent]
+33.3 +12.0 27 +33 +36 жарко 1008.3 929.7
15 20.10 СВ 4 10 км 6/4 1200 м
[Sc diur, vesp Ac lent]
+31.5 +10.0 27 +31 +31 жарко 1009.3 930.2
18 20.10 СВ 5 10 км 4/4 1050 м
[Sc diur, vesp]
+28.5 +11.0 34 +29 +29 жарко 1010.7 931.8 +34.0
21 20.10 В 5 10 км 4/4 1050 м
[Sc diur, vesp]
+27.1 +11.0 37 +28 +28 жарко 1010.4 931.9
00 21.10 В 5 10 км 4/4 1050 м
[Sc diur, vesp]
+25.5 +11.0 40 +27 +27 жарко 1009.6 931.2
03 21.10 В 5 10 км 4/4 1050 м
[Sc diur, vesp Ac lent]
+24.1 +10.0 41 +25 +25 комфорт 1011.0 932.1
06 21.10 В 3 10 км 4/4 1200 м
[Sc diur, vesp]
+30.0 +12.0 33 +31 +35 жарко 1012.6 933.9 +23.0
09 21.10 В 4 10 км 4/4 1200 м
[Sc diur, vesp]
+34.4 +14.0 29 +35 +42 очень
жарко
1009.8 931.7

 

Местоположение метеостанции Sharorah (Саудовская Аравия): широта 17.47 долгота 47.10 высота над уровнем моря 725 м.

В архиве по умолчанию представлена погода в Sharorah за последнюю неделю. Архивные данные за месяц целиком и за предыдущие месяцы, начиная с января 2011 года, Вы можете получить, выбрав интересующий диапазон дат из раскрывающегося списка и нажав кнопку "Ввод!".


*Определитесь, кто Вы:
робот инопланетянин человек

Внимание! Время в таблицах - всемирное. Для получения местного времени необходимо прибавить поправку, которая в Sharorah равна 3 ч.

Смотрите также архив погоды в соседних городах и на ближайших метеорологических станциях:

Погода в Seiyoun (Йемен) (257 км)
Погода в Najran (Саудовская Аравия) (285 км)
Погода в Marib (Йемен) (295 км)
Погода в Sana (Йемен) (379 км)
Погода в Wadi Al Dawasir Airport (Саудовская Аравия) (389 км)
Погода в Riyan (Йемен) (395 км)
Погода в Hajjah (Йемен) (417 км)
Погода в Dhamar (Йемен) (431 км)
Погода в Khamis Mushait (Саудовская Аравия) (464 км)
Погода в Abha (Саудовская Аравия) (479 км)

Пояснения к столбцам:

Ветер - указаны скорость ветра в м/с - средняя за 10 мин, порывы в срок и между сроками (в фигурных скобках) и направление, откуда дует ветер: С - северный, СВ - северо-восточный, В - восточный, ЮВ - юго-восточный, Ю - южный, ЮЗ - юго-западный, З - западный, СЗ - северо-западный.
Видимость - горизонтальная дальность видимости в метрах или километрах. При видимости от 1 до 10 км при отсутствии осадков обычно наблюдается дымка, при ухудшении видимости до 1 км и менее - туман. В сухую погоду видимость может ухудшаться дымом, пылью или мглою.
Явления - указаны атмосферные явления, наблюдавшиеся в срок или в последний час перед сроком; фигурными скобками обозначены явления, наблюдавшиеся между сроками (за 1-3 часа до срока); квадратными скобками обозначены град или гололедные отложения с указанием их диаметра в мм.
Облачность - указаны через наклонную черту общая и нижняя облачность в баллах и высота нижней границы облаков в метрах; квадратными скобками обозначены формы облаков: Ci - перистые, Cs - перисто-слоистые, Cc - перисто-кучевые, Ac - высококучевые, As - высокослоистые, Sc - слоисто-кучевые, Ns - слоисто-дождевые, Cu - кучевые, Cb - кучево-дождевые. Подробнее классификацию облаков см. в Атласе облаков (PDF).
T - Температура воздуха - температура, измеренная на высоте 2 м над землей.
Td - Температура точки росы - температура, при понижении до которой содержащийся в воздухе водяной пар достигнет насыщения.
f - Относительная влажность воздуха - влажноcть воздуха, измеренная на высоте 2 м над землей.
Te - Эффективная температура - температура, которую ощущает одетый по сезону человек в тени. Характеристика душности погоды. При расчете учитывается влияние влажности воздуха и скорости ветра на теплоощущения человека.
Tes - Эффективная температура на солнце - температура, которую ощущает человек, с поправкой на солнечный нагрев. Характеристика знойности погоды. Зависит от высоты солнца над горизонтом, облачности и скорости ветра. Ночью, в пасмурную погоду, а также при ветре 12 м/с и более поправка равна нулю.
P - Атмосферное давление - приведенное к уровню моря атмосферное давление.
Po - Атмосферное давление - измеренное на уровне метеостанции атмосферное давление.
Tmin - Минимальная температура - минимум температуры воздуха на высоте 2 м над землей.
Tmax - Максимальная температура - максимум температуры воздуха на высоте 2 м над землей.
R - Количество осадков - Количество выпавших осадков за период времени, мм. При наведении курсора мыши на число - период времени, за который выпало указанное количество осадков.
R24 - Количество осадков - Количество выпавших осадков за 24 часа, мм.
S - Снежный покров - Высота снежного покрова, см. При наведении курсора мыши на число - состояние снежного покрова и степень покрытия местности в баллах.